Simultaneous Nadir Overpasses (SNOs) Predictions

Prediction of SNOs between FY3D and TERRA Satellite Orbit:

Table of predicted SNOs for the next 14.0 days since TLE Epoch: 9/24/2022
Index Date (FY3D) Time (FY3D) Lat,Lon (FY3D) SZA (FY3D ) Date (TERRA) Time (TERRA) Lat,Lon (TERRA) SZA (TERRA ) Distance(km) Time Diff (sec)
1 09/24/2022 21:56:25 72.10,-149.32 72.74 09/24/2022 21:56:45 72.08,-149.33 72.72 2.51 20
2 09/24/2022 22:47:08 -71.99, 18.21 107.36 09/24/2022 22:46:14 -72.01, 18.18 107.34 2.66 54
3 09/27/2022 12:32:55 72.79, -9.76 74.44 09/27/2022 12:34:02 72.72, -7.57 74.39 72.76 67
4 09/27/2022 13:23:27 -72.11, 158.92 106.22 09/27/2022 13:23:41 -72.11, 158.97 106.22 1.66 14
5 09/27/2022 14:14:11 72.01, -33.57 73.70 09/27/2022 14:13:08 72.01, -33.56 73.70 0.47 63
6 09/30/2022 03:59:53 -72.60, -61.10 104.72 09/30/2022 04:01:03 -72.47, -59.79 104.83 46.14 70
7 09/30/2022 04:50:29 72.09, 107.22 74.80 09/30/2022 04:50:35 72.10, 107.20 74.81 1.14 6
8 09/30/2022 05:41:13 -72.03, -85.34 105.26 09/30/2022 05:40:04 -72.04, -85.28 105.25 2.07 69
9 10/02/2022 19:26:49 72.28,-112.19 76.00 10/02/2022 19:28:01 72.23,-111.97 75.95 9.53 72
10 10/02/2022 20:17:31 -72.11, 55.46 104.16 10/02/2022 20:17:31 -72.11, 55.46 104.16 0.21 0
11 10/02/2022 21:08:12 71.86,-136.75 75.61 10/02/2022 21:07:00 71.90,-137.26 75.64 18.46 72
12 10/05/2022 10:53:48 -72.20,-163.76 103.06 10/05/2022 10:54:56 -72.23,-163.73 103.03 2.86 68
13 10/05/2022 11:44:32 72.10, 3.75 76.86 10/05/2022 11:44:23 72.12, 3.73 76.87 2.06 9
14 10/05/2022 12:35:09 -71.68, 171.86 103.54 10/05/2022 12:33:58 -71.74, 170.70 103.51 40.94 71
15 10/08/2022 02:20:50 72.20, 144.52 77.95 10/08/2022 02:21:49 72.22, 144.51 77.98 2.71 59
16 10/08/2022 03:11:34 -72.13, -48.04 102.10 10/08/2022 03:11:19 -72.11, -48.05 102.13 2.66 15



Historial Predications of SNOs between FY3D and TERRA
